This is the latest recevied weather packets stored in our database for station/object KC1BRV. If no packets are shown the sender has not sent any weather packets the latest 10 day(s).
| Time | Temp. | Humidity | Pressure | Rain* | Wind** | Luminosity | Snow |
|---|---|---|---|---|---|---|---|
| 1788217627 | 20.56° C | 82% | 1020.2 hPa | 0 mm | - | 3 W/m² | - |
| 1788217322 | 20.56° C | 82% | 1020.2 hPa | 0 mm | - | 4 W/m² | - |
| 1788217021 | 20.56° C | 82% | 1020.3 hPa | 0 mm | - | 6 W/m² | - |
| 1788216716 | 20.56° C | 82% | 1020.2 hPa | 0 mm | - | 8 W/m² | - |
| 1788216411 | 20.56° C | 82% | 1020.3 hPa | 0 mm | - | 11 W/m² | - |
| 1788216107 | 20.56° C | 83% | 1020.1 hPa | 0 mm | - | 17 W/m² | - |
| 1788215802 | 21.11° C | 83% | 1020.3 hPa | 0 mm | - | 19 W/m² | - |
| 1788215499 | 21.11° C | 82% | 1020 hPa | 0 mm | - | 18 W/m² | - |
| 1788215194 | 21.11° C | 81% | 1020.2 hPa | 0 mm | - | 11 W/m² | - |
| 1788214889 | 21.11° C | 81% | 1019.9 hPa | 0 mm | - | 6 W/m² | - |
| 1788214585 | 21.11° C | 80% | 1020.2 hPa | 0 mm | - | 5 W/m² | - |
| 1788214280 | 21.11° C | 79% | 1020.3 hPa | 0 mm | - | 7 W/m² | - |
| 1788213975 | 21.67° C | 80% | 1020.3 hPa | 0 mm | - | 9 W/m² | - |
| 1788213670 | 21.67° C | 80% | 1020.2 hPa | 0 mm | - | 16 W/m² | - |
| 1788213365 | 21.67° C | 79% | 1020.3 hPa | 0 mm | - | 33 W/m² | - |
| 1788213061 | 21.67° C | 79% | 1020.4 hPa | 0 mm | - | 50 W/m² | - |
| 1788212758 | 21.67° C | 79% | 1020.3 hPa | 0 mm | - | 55 W/m² | - |
| 1788212454 | 21.67° C | 79% | 1020.4 hPa | 0 mm | - | 46 W/m² | - |
| 1788212151 | 21.67° C | 79% | 1020.3 hPa | 0 mm | - | 43 W/m² | - |
| 1788211846 | 21.67° C | 82% | 1020.4 hPa | 0 mm | - | 37 W/m² | - |
| 1788211542 | 21.67° C | 81% | 1020.4 hPa | 0 mm | - | 34 W/m² | - |
| 1788211238 | 22.22° C | 79% | 1020.4 hPa | 0 mm | - | 29 W/m² | - |
| 1788210937 | 22.22° C | 79% | 1020.3 hPa | 0 mm | - | 21 W/m² | - |
| 1788210636 | 22.22° C | 78% | 1020.3 hPa | 0 mm | - | 29 W/m² | - |
| 1788210332 | 22.78° C | 78% | 1020.3 hPa | 0 mm | - | 47 W/m² | - |
* Rain latest hour (hover to see other rain measurements)
** Current wind speed in m/s (hover to see current wind gust speed)